User: anonymous   Login
Location: Banios
(43.0451°N, 0.2335°E)
Time: 00:26:38
(UTC+00:00)
Language:

H-2A R/B - Orbit

View from above orbital plane
View from above orbital plane
View from above satellite
View from above satellite

Ground track
Ground track

The orbit data is extracted from the following two-line orbital elements,

1 28932U 06002B   21104.58419698  .00000350  00000-0  37972-4 0  9990
2 28932  98.3314 117.8593 0089469  57.0292  95.1403 14.92504216826056
Epoch (UTC): 14 April 2021 14:01:14
Eccentricity: 0.0089469
inclination: 98.3314°
perigee height: 528 km
apogee height: 652 km
right ascension of ascending node: 117.8593°
argument of perigee: 57.0292°
revolutions per day: 14.92504216
mean anomaly at epoch: 95.1403°
orbit number at epoch: 82605

The dashed part of the orbit path shows where the satellite is in the earth's shadow,  

DLR